Location: Beaurecueil
(43.5122°N, 5.5450°E)
Time: 07:38:24
(UTC+00:00)

Cosmos 1939 Rocket - Pass Details

Date: 24 January 2021
Orbit: 531 x 585 km, 97.4° (Epoch: 04 March)

Event Time Altitude Azimuth Distance (km) Brightness Sun altitude
Rises 05:10:18 0° 36° (NE) 2,714 6.7 -20.1°
Maximum altitude 05:15:02 10° 89° (E) 1,787 6.6 -19.3°
Drops below altitude 10° 05:15:28 10° 95° (E) 1,795 6.7 -19.2°
Sets 05:19:42 0° 141° (SE) 2,667 7.1 -18.4°
